www.pogodaiklimat.ru

Погода и климат >> Архив погоды >> Россия >> город Санкт-Петербург >> Санкт-Петербург


АРХИВ ПОГОДЫ в Санкт-Петербурге

Время (UTC), дата Ветер
(напр.,м/с)
 
Видим.   Явления Облачность Т
(С)
Тd
(С)
f
(%)
Тe
(С)
Тes
(С)
Комфортность P
(гПа)
Po
(гПа)
Тmin
(С)
Tmax
(С)
R
(мм)
R24
(мм)
S
(см)
00 13.08 В 1 10 км {ливн. осадки, дождь} 9/4 600 м
[Sc Ac As]
+15.8 +13.8 88 +16 +16 по сезону 1010.8 1010.1
03 13.08 штиль 0 10 км 10/9 200 м
[Sc Ci fib]
+16.1 +14.6 91 +16 +16 по сезону 1009.4 1008.7 +15.8 6
06 13.08 штиль 0 10 км 10/9 200 м
[Sc Ci fib]
+16.1 +14.6 91 +16 +16 по сезону 1009.4 1008.7 +15.8 6
09 13.08 СЗ 2 10 км 8/6 1000 м
[Sc diur, vesp Cc]
+19.5 +13.5 68 +22 +25 комфорт 1009.6 1008.8
12 13.08 ЮЗ 2 10 км 8/4 1000 м
[Cu hum Ac trans]
+20.9 +13.2 61 +24 +27 комфорт 1008.6 1007.9
15 13.08 З 2 10 км 8/3 1000 м
[Cu hum Ac trans]
+20.2 +11.7 58 +23 +24 комфорт 1008.0 1007.3
18 13.08 штиль 0 10 км 4/4 1000 м
[Sc diur, vesp]
+17.1 +11.9 71 +17 +17 по сезону 1008.1 1007.3 +21.9
21 13.08 штиль 0 10 км 6/3 1000 м
[Sc diur, vesp Ac trans]
+15.9 +13.1 83 +16 +16 по сезону 1008.3 1007.6
00 14.08 ЮЗ 2 10 км 3/0
[Ac trans]
+16.2 +12.9 81 +16 +16 по сезону 1008.5 1007.8
03 14.08 ЮЗ 2 10 км 4/3 1000 м
[Sc diur, vesp Ac trans]
+15.9 +13.3 85 +16 +16 по сезону 1009.1 1008.4 +15.6
06 14.08 ЮЗ 2 10 км 6/3 600 м
[Cu med, cong Ac trans Cs]
+18.9 +12.9 68 +20 +23 тепло 1009.7 1009.0 +15.6
09 14.08 ЮЗ 3 10 км 8/8 600 м
[Cu med, cong]
+20.8 +12.3 58 +23 +25 комфорт 1009.2 1008.4
12 14.08 З 2 10 км 8/3 1000 м
[Cu hum Ac trans Cs]
+21.9 +11.1 50 +24 +28 комфорт 1008.7 1008.0
15 14.08 З 1 10 км {ливн. осадки, дождь} 10/0
[Ac As]
+16.1 +13.8 86 +17 +18 по сезону 1009.6 1008.9 4
18 14.08 З 1 10 км 10/0 2000 м
[As trans Cs]
+16.7 +12.2 75 +18 +18 по сезону 1009.6 1008.9 +22.6 4
21 14.08 З 1 10 км 8/0
[As trans Cs]
+15.6 +12.4 81 +16 +16 по сезону 1009.0 1008.3
00 15.08 ЮЗ 1 10 км 10/3 2000 м
[Sc diur, vesp Ac As Cs]
+15.6 +12.5 82 +16 +16 тепло 1008.6 1007.9
03 15.08 З 1 10 км 10/3 1500 м
[Sc diur, vesp As trans Cs]
+15.2 +12.3 83 +16 +16 по сезону 1008.3 1007.5 +14.8 4
06 15.08 ЮЗ 3 10 км 3/0
[Ci fib]
+16.6 +11.4 71 +16 +19 по сезону 1008.3 1007.6 +14.8
09 15.08 З 4 10 км 3/0
[Ci fib]
+19.0 +9.1 53 +20 +26 тепло 1008.2 1007.5
12 15.08 ЮЗ 4
{11}
10 км слаб. дождь 9/8 300 м
[Sc diur, vesp Ac und]
+17.9 +8.8 55 +18 +18 по сезону 1009.2 1008.5
15 15.08 ЮЗ 3 10 км {ливн. осадки, дождь} 9/5 600 м
[Sc diur, vesp Ac trans]
+17.5 +11.0 66 +18 +18 по сезону 1009.9 1009.2 0.3
18 15.08 ЮЗ 2 10 км {ливн. осадки, дождь} ясно +16.6 +10.2 66 +17 +17 по сезону 1011.3 1010.6 +20.2 0.3
21 15.08 ЮЗ 2 10 км ясно +15.0 +10.1 72 +15 +15 по сезону 1012.4 1011.7
00 16.08 З 2 10 км ясно +15.1 +11.2 78 +15 +15 по сезону 1013.3 1012.6
03 16.08 ЮЗ 1 10 км ясно +14.3 +11.6 84 +15 +15 по сезону 1014.5 1013.8 +14.3
06 16.08 З 2 10 км ясно +16.9 +10.6 66 +17 +21 по сезону 1015.8 1015.0 +14.2
09 16.08 З 1 10 км 8/8 600 м
[Cu med, cong]
+18.1 +6.3 46 +19 +22 тепло 1016.2 1015.5
12 16.08 З 2 10 км {дождь} 3/3 600 м
[Cu hum]
+20.3 +9.1 49 +22 +28 комфорт 1016.5 1015.8
15 16.08 ЮЗ 2 10 км 1/1 600 м
[Cu med, cong]
+19.7 +8.2 47 +21 +23 комфорт 1016.4 1015.7 0.0
18 16.08 штиль 0 10 км ясно +15.5 +6.2 54 +15 +15 по сезону 1017.0 1016.3 +20.8 0.0
21 16.08 штиль 0 20 км ясно +13.0 +9.4 79 +13 +13 прохладно 1017.6 1016.9
00 17.08 штиль 0 10 км ясно +12.2 +10.3 88 +12 +12 по сезону 1018.4 1017.7
03 17.08 штиль 0 10 км 3/0
[Ac trans]
+11.9 +10.1 89 +11 +11 прохладно 1018.6 1017.9 +11.5
06 17.08 штиль 0 10 км ясно +19.0 +9.0 52 +20 +25 тепло 1019.0 1018.3 +11.5
09 17.08 Ю 2 10 км ясно +21.8 +7.1 39 +23 +32 комфорт 1018.8 1018.1
12 17.08 ЮВ 1 10 км 1/1 600 м
[Cu hum]
+23.3 +5.4 31 +23 +32 комфорт 1018.0 1017.3
15 17.08 В 2 10 км 1/1 1000 м
[Cu hum]
+23.3 +4.5 29 +23 +25 комфорт 1017.1 1016.4
18 17.08 В 2 10 км ясно +20.1 +7.5 44 +22 +22 комфорт 1017.5 1016.8 +24.5
21 17.08 штиль 0 10 км ясно +16.1 +9.2 64 +16 +16 по сезону 1017.2 1016.5
00 18.08 штиль 0 10 км ясно +14.1 +9.0 71 +14 +14 по сезону 1017.3 1016.6
03 18.08 штиль 0 10 км ясно +12.1 +9.5 84 +12 +12 прохладно 1016.4 1015.7 +11.8
06 18.08 В 1 10 км 3/0
[Ci fib]
+18.2 +8.2 52 +19 +24 тепло 1016.0 1015.3 +11.8
09 18.08 СВ 1 10 км 8/4 1000 м
[Cu med, cong Ac trans Cc]
+22.2 +5.5 34 +23 +27 комфорт 1015.1 1014.4
12 18.08 СВ 1 10 км 8/0
[Ac cast Ci fib]
+23.8 +7.0 34 +24 +30 комфорт 1013.9 1013.2
15 18.08 СВ 1 10 км 8/3 1500 м
[Cu med, cong Ac cast Ci fib]
+22.6 +9.0 42 +24 +25 комфорт 1013.5 1012.8
18 18.08 В 1 10 км 3/0
[Ac trans]
+19.5 +9.9 54 +22 +22 комфорт 1013.5 1012.8 +24.1
21 18.08 штиль 0 10 км ясно +17.6 +11.7 68 +18 +18 тепло 1013.3 1012.6
00 19.08 штиль 0 10 км ясно +14.3 +12.3 88 +14 +14 по сезону 1013.2 1012.5
03 19.08 Ю 1 10 км 3/0
[Ci fib]
+15.4 +11.8 79 +16 +16 по сезону 1012.7 1012.0 +13.9
06 19.08 ЮВ 1 10 км 8/0
[Ac trans Ci fib]
+18.7 +12.4 67 +21 +23 комфорт 1012.2 1011.5 +13.9
09 19.08 ЮВ 2 10 км 9/0
[Ac As]
+22.1 +11.8 52 +24 +28 комфорт 1011.3 1010.6
12 19.08 Ю 3 10 км 9/0
[Ac As]
+22.8 +11.7 50 +25 +28 комфорт 1010.9 1010.2
15 19.08 Ю 2 10 км 8/0
[Ac trans]
+22.6 +13.6 57 +26 +27 жарко 1011.5 1010.8
18 19.08 ЮЗ 2 10 км 9/0 1500 м
[Ac trans]
+21.7 +15.2 67 +25 +25 комфорт 1012.7 1012.0 +24.1
21 19.08 З 1 10 км 6/0
[Ac trans]
+17.6 +13.8 78 +19 +19 тепло 1014.2 1013.5

 

Местоположение метеостанции Санкт-Петербург (город Санкт-Петербург, Россия): широта 59.97 долгота 30.30 высота над уровнем моря 6 м.

В архиве по умолчанию представлена погода в Санкт-Петербурге за последнюю неделю. Архивные данные за месяц целиком и за предыдущие месяцы, начиная с января 2011 года, Вы можете получить, выбрав интересующий диапазон дат из раскрывающегося списка и нажав кнопку "Ввод!".


*Определитесь, кто Вы:
робот инопланетянин человек

Внимание! Время в таблицах - всемирное. Для получения местного времени необходимо прибавить поправку, которая равна 3 ч.

Смотрите также архив погоды в соседних городах и на ближайших метеорологических станциях:

Погода в Лисьем Носу (город Санкт-Петербург, Россия) (19 км)
Погода в Воейково (город Санкт-Петербург, Россия) (22 км)
Погода в Ломоносове (город Санкт-Петербург, Россия) (29 км)
Погода в Кронштадте (город Санкт-Петербург, Россия) (30 км)
Погода в Шлиссельбурге (Ленинградская область, Россия) (39 км)
Погода в Рощино (Ленинградская область, Россия) (48 км)
Погода в Шепелево (Ленинградская область, Россия) (58 км)
Погода в Сосново (Ленинградская область, Россия) (65 км)
Погода в Сосновом Бору (Ленинградская область, Россия) (65 км)
Погода в Белогорке (Ленинградская область, Россия) (70 км)

Пояснения к столбцам:

Ветер - указаны скорость ветра в м/с - средняя за 10 мин, порывы в срок и между сроками (в фигурных скобках) и направление, откуда дует ветер: С - северный, СВ - северо-восточный, В - восточный, ЮВ - юго-восточный, Ю - южный, ЮЗ - юго-западный, З - западный, СЗ - северо-западный.
Видимость - горизонтальная дальность видимости в метрах или километрах. При видимости от 1 до 10 км при отсутствии осадков обычно наблюдается дымка, при ухудшении видимости до 1 км и менее - туман. В сухую погоду видимость может ухудшаться дымом, пылью или мглою.
Явления - указаны атмосферные явления, наблюдавшиеся в срок или в последний час перед сроком; фигурными скобками обозначены явления, наблюдавшиеся между сроками (за 1-3 часа до срока); квадратными скобками обозначены град или гололедные отложения с указанием их диаметра в мм.
Облачность - указаны через наклонную черту общая и нижняя облачность в баллах и высота нижней границы облаков в метрах; квадратными скобками обозначены формы облаков: Ci - перистые, Cs - перисто-слоистые, Cc - перисто-кучевые, Ac - высококучевые, As - высокослоистые, Sc - слоисто-кучевые, Ns - слоисто-дождевые, Cu - кучевые, Cb - кучево-дождевые. Подробнее классификацию облаков см. в Атласе облаков (PDF).
T - Температура воздуха - температура, измеренная на высоте 2 м над землей.
Td - Температура точки росы - температура, при понижении до которой содержащийся в воздухе водяной пар достигнет насыщения.
f - Относительная влажность воздуха - влажноcть воздуха, измеренная на высоте 2 м над землей.
Te - Эффективная температура - температура, которую ощущает одетый по сезону человек в тени. Характеристика душности погоды. При расчете учитывается влияние влажности воздуха и скорости ветра на теплоощущения человека.
Tes - Эффективная температура на солнце - температура, которую ощущает человек, с поправкой на солнечный нагрев. Характеристика знойности погоды. Зависит от высоты солнца над горизонтом, облачности и скорости ветра. Ночью, в пасмурную погоду, а также при ветре 12 м/с и более поправка равна нулю.
P - Атмосферное давление - приведенное к уровню моря атмосферное давление.
Po - Атмосферное давление - измеренное на уровне метеостанции атмосферное давление.
Tmin - Минимальная температура - минимум температуры воздуха на высоте 2 м над землей.
Tmax - Максимальная температура - максимум температуры воздуха на высоте 2 м над землей.
R - Количество осадков - Количество выпавших осадков за период времени, мм. При наведении курсора мыши на число - период времени, за который выпало указанное количество осадков.
R24 - Количество осадков - Количество выпавших осадков за 24 часа, мм.
S - Снежный покров - Высота снежного покрова, см. При наведении курсора мыши на число - состояние снежного покрова и степень покрытия местности в баллах.